DW7888 Weather Reports


time (UTC)temp
C
wind
direction
speed
KPH
gust
KPH
rain 1hr
cm
rain 24hr
cm
rain mn
cm
humidity
%
barometer
mb
20260510084006 13 352 0.0 0.0 0.00 0.00 0.00 92 1011.9
20260510083510 13 352 0.0 0.0 0.00 0.00 0.00 92 1011.9
20260510083012 13 352 0.0 0.0 0.00 0.00 0.00 92 1011.9
20260510082505 13 352 0.0 0.0 0.00 0.00 0.00 92 1011.9
20260510082006 13 352 0.0 0.0 0.00 0.00 0.00 92 1011.8
20260510081528 13 352 0.0 0.0 0.00 0.00 0.00 91 1011.7
20260510081007 13 352 0.0 0.0 0.00 0.00 0.00 91 1011.7
20260510080508 13 352 0.0 0.0 0.00 0.00 0.00 91 1011.7
20260510080013 13 352 0.0 0.0 0.00 0.00 0.00 91 1011.6
20260510075506 14 352 0.0 0.0 0.00 0.00 0.00 91 1011.7
20260510075006 14 352 0.0 0.0 0.00 0.00 0.00 90 1011.6
20260510074513 14 352 0.0 0.0 0.00 0.00 0.00 90 1011.6
20260510074009 14 352 0.0 0.0 0.00 0.00 0.00 90 1011.6
20260510073509 15 352 0.0 0.0 0.00 0.00 0.00 89 1011.6
20260510073025 15 352 0.0 0.0 0.00 0.00 0.00 89 1011.6
20260510072505 15 352 0.0 0.0 0.00 0.00 0.00 89 1011.6
20260510072006 15 352 0.0 0.0 0.00 0.00 0.00 89 1011.6
20260510071516 15 352 0.0 0.0 0.00 0.00 0.00 88 1011.6
20260510071009 15 352 0.0 0.0 0.00 0.00 0.00 88 1011.5
20260510070506 16 352 0.0 0.0 0.00 0.00 0.00 87 1011.4
20260510070023 16 352 0.0 0.0 0.00 0.00 0.00 87 1011.5
20260510065506 16 352 0.0 0.0 0.00 0.00 0.00 87 1011.5
20260510065009 16 352 0.0 0.0 0.00 0.00 0.00 87 1011.5
20260510064542 16 352 0.0 3.2 0.00 0.00 0.00 86 1011.5
20260510064005 16 352 0.0 3.2 0.00 0.00 0.00 86 1011.5
20260510063509 16 19 0.0 1.6 0.00 0.00 0.00 86 1011.6
20260510063019 17 19 0.0 1.6 0.00 0.00 0.00 85 1011.6
20260510062506 17 19 0.0 1.6 0.00 0.00 0.00 85 1011.6
20260510062007 17 27 0.0 3.2 0.00 0.00 0.00 85 1011.6
20260510061530 17 5 0.0 3.2 0.00 0.00 0.00 84 1011.6
20260510061006 17 5 0.0 3.2 0.00 0.00 0.00 84 1011.5
20260510060508 17 30 0.0 3.2 0.00 0.00 0.00 84 1011.6
20260510060026 17 5 0.0 3.2 0.00 0.00 0.00 84 1011.6
20260510055510 17 46 0.0 1.6 0.00 0.00 0.00 83 1011.5
20260510055001 17 32 0.0 3.2 0.00 0.00 0.00 83 1011.4
20260510054510 17 10 0.0 3.2 0.00 0.00 0.00 83 1011.6
20260510054007 17 315 0.0 4.8 0.00 0.00 0.00 83 1011.7
20260510053506 17 81 0.0 8.0 0.00 0.00 0.00 83 1011.6
20260510053012 17 90 0.0 6.4 0.00 0.00 0.00 82 1011.6
20260510052505 17 355 0.0 3.2 0.00 0.00 0.00 82 1011.6
20260510052007 17 101 0.0 3.2 0.00 0.00 0.00 82 1011.6
20260510051514 17 103 0.0 3.2 0.00 0.00 0.00 81 1011.6
20260510051006 18 76 0.0 3.2 0.00 0.00 0.00 81 1011.7
20260510050502 18 127 0.0 3.2 0.00 0.00 0.00 81 1011.6
20260510050014 18 150 0.0 6.4 0.00 0.00 0.00 80 1011.7
20260510045504 18 122 1.6 6.4 0.00 0.00 0.00 80 1011.6
20260510045010 18 144 0.0 6.4 0.00 0.00 0.00 80 1011.6
20260510044516 18 153 0.0 3.2 0.00 0.00 0.00 80 1011.6
20260510044004 18 160 0.0 3.2 0.00 0.00 0.00 79 1011.6
20260510043504 18 197 0.0 4.8 0.00 0.00 0.00 79 1011.6
20260510043019 18 165 0.0 6.4 0.00 0.00 0.00 79 1011.6
20260510042503 18 117 0.0 11.3 0.00 0.00 0.00 78 1011.5
20260510042009 18 143 0.0 11.3 0.00 0.00 0.00 78 1011.5
20260510041517 18 78 0.0 3.2 0.00 0.00 0.00 78 1011.5
20260510041003 18 198 0.0 4.8 0.00 0.00 0.00 78 1011.5
20260510040506 18 165 0.0 4.8 0.00 0.00 0.00 78 1011.5
20260510040018 18 175 0.0 8.0 0.00 0.00 0.00 77 1011.4
20260510035502 18 142 0.0 8.0 0.00 0.00 0.00 77 1011.4
20260510035006 18 179 0.0 1.6 0.00 0.00 0.00 77 1011.4
20260510034521 18 150 0.0 3.2 0.00 0.00 0.00 77 1011.3
20260510034003 18 123 0.0 3.2 0.00 0.00 0.00 76 1011.3
20260510033506 18 127 0.0 3.2 0.00 0.00 0.00 75 1011.3
20260510033019 18 175 0.0 3.2 0.00 0.00 0.00 75 1011.3
20260510032502 18 170 0.0 4.8 0.00 0.00 0.00 75 1011.2
20260510032007 18 194 0.0 12.9 0.00 0.00 0.00 74 1011.2
20260510031522 18 136 0.0 12.9 0.00 0.00 0.00 74 1011.2
20260510031004 18 103 0.0 6.4 0.00 0.00 0.00 74 1011.2
20260510030506 18 146 0.0 6.4 0.00 0.00 0.00 74 1011.1
20260510030019 18 189 1.6 6.4 0.00 0.00 0.00 73 1011.1
20260510025504 19 171 0.0 6.4 0.00 0.00 0.00 73 1011.2
20260510025006 19 194 1.6 4.8 0.00 0.00 0.00 73 1011.1
20260510024528 19 175 0.0 8.0 0.00 0.00 0.00 72 1011.1
20260510024003 19 168 1.6 8.0 0.00 0.00 0.00 72 1011.0
20260510023508 19 189 0.0 6.4 0.00 0.00 0.00 72 1011.0
20260510023025 19 209 1.6 8.0 0.00 0.00 0.00 72 1010.9
20260510022504 19 176 1.6 8.0 0.00 0.00 0.00 72 1010.9
20260510022006 19 165 0.0 6.4 0.00 0.00 0.00 72 1010.8
20260510021522 19 132 1.6 4.8 0.00 0.00 0.00 72 1010.8
20260510021003 18 171 0.0 4.8 0.00 0.00 0.00 72 1010.7
20260510020507 18 113 0.0 3.2 0.00 0.00 0.00 72 1010.7
20260510020024 19 155 0.0 0.0 0.00 0.00 0.00 72 1010.6
20260510015503 19 136 0.0 0.0 0.00 0.00 0.00 72 1010.5
20260510015007 19 130 0.0 0.0 0.00 0.00 0.00 72 1010.4
20260510014529 19 172 0.0 0.0 0.00 0.00 0.00 72 1010.4
20260510014004 19 151 0.0 0.0 0.00 0.00 0.00 72 1010.3
20260510013507 18 149 0.0 0.0 0.00 0.00 0.00 72 1010.2
20260510013025 18 148 0.0 0.0 0.00 0.00 0.00 72 1010.2
20260510012503 18 142 0.0 0.0 0.00 0.00 0.00 72 1010.2
20260510012009 18 154 0.0 0.0 0.00 0.00 0.00 73 1010.2
20260510011528 18 149 0.0 0.0 0.00 0.00 0.00 73 1010.1
20260510011006 18 149 0.0 0.0 0.00 0.00 0.00 73 1010.0
20260510010506 18 149 0.0 0.0 0.00 0.00 0.00 73 1009.9
20260510010025 18 150 0.0 0.0 0.00 0.00 0.00 73 1009.9
20260510005507 18 149 0.0 0.0 0.00 0.00 0.00 73 1009.9
20260510005006 18 149 0.0 0.0 0.00 0.00 0.00 72 1009.8
20260510004526 18 149 0.0 3.2 0.00 0.00 0.00 73 1009.7
20260510004010 18 153 0.0 3.2 0.00 0.00 0.00 72 1009.6
20260510003514 19 151 0.0 0.0 0.00 0.00 0.00 72 1009.6
20260510003034 19 151 0.0 1.6 0.00 0.00 0.00 71 1009.6
20260510002506 19 151 0.0 1.6 0.00 0.00 0.00 70 1009.6
20260510002010 20 151 0.0 1.6 0.00 0.00 0.00 70 1009.5
20260510001528 20 121 0.0 0.0 0.00 0.00 0.00 70 1009.3
20260510001007 20 116 0.0 1.6 0.00 0.00 0.00 70 1009.4
20260510000507 20 116 0.0 1.6 0.00 0.00 0.00 68 1009.3
20260510000030 21 82 0.0 0.0 0.00 0.00 0.00 68 1009.2
20260509235505 21 82 0.0 0.0 0.00 0.00 0.00 66 1009.2
20260509235012 21 82 0.0 0.0 0.00 0.00 0.00 66 1009.2
20260509234536 22 82 0.0 0.0 0.00 0.00 0.00 64 1009.1
20260509234007 22 82 0.0 0.0 0.00 0.00 0.00 63 1009.0
20260509233509 22 38 0.0 0.0 0.00 0.00 0.00 60 1009.0
20260509233039 22 38 0.0 0.0 0.00 0.00 0.00 57 1009.0
20260509232507 22 38 0.0 0.0 0.00 0.00 0.00 56 1009.1
20260509232007 22 38 0.0 0.0 0.00 0.00 0.00 55 1009.1
20260509231512 22 38 0.0 1.6 0.00 0.00 0.00 56 1009.1
20260509231008 23 38 0.0 1.6 0.00 0.00 0.00 56 1009.1
20260509230508 23 41 0.0 1.6 0.00 0.00 0.00 56 1009.1
20260509230012 23 117 0.0 0.0 0.00 0.00 0.00 56 1009.1
20260509225510 23 113 0.0 1.6 0.00 0.00 0.00 56 1009.0
20260509225009 23 113 0.0 3.2 0.00 0.00 0.00 56 1009.0
20260509224516 23 59 0.0 3.2 0.00 0.00 0.00 54 1008.8
20260509224008 23 160 0.0 3.2 0.00 0.00 0.00 55 1008.9
20260509223512 23 117 0.0 3.2 0.00 0.00 0.00 55 1008.8
20260509223016 23 105 0.0 3.2 0.00 0.00 0.00 54 1008.9
20260509222511 23 105 0.0 1.6 0.00 0.00 0.00 56 1008.8
20260509222011 23 113 0.0 1.6 0.00 0.00 0.00 55 1008.8
20260509221513 23 10 0.0 1.6 0.00 0.00 0.00 54 1008.9
20260509221010 23 355 0.0 1.6 0.00 0.00 0.00 54 1009.0
20260509220507 23 101 0.0 4.8 0.00 0.00 0.00 55 1009.0
20260509220020 23 144 0.0 4.8 0.00 0.00 0.00 54 1008.9
20260509215508 23 108 0.0 3.2 0.00 0.00 0.00 54 1008.8
20260509215012 23 107 0.0 3.2 0.00 0.00 0.00 57 1008.8
20260509214516 23 144 0.0 3.2 0.00 0.00 0.00 57 1008.7
20260509214007 23 82 0.0 3.2 0.00 0.00 0.00 55 1008.7
20260509213514 23 26 0.0 4.8 0.00 0.00 0.00 54 1008.7
20260509213016 23 165 1.6 4.8 0.00 0.00 0.00 54 1008.6
20260509212507 23 199 1.6 6.4 0.00 0.00 0.00 53 1008.7
20260509212013 23 178 0.0 6.4 0.00 0.00 0.00 53 1008.7
20260509211520 24 148 1.6 6.4 0.00 0.00 0.00 51 1008.6
20260509211010 25 180 1.6 8.0 0.00 0.00 0.00 52 1008.7
20260509210507 25 306 1.6 8.0 0.00 0.00 0.00 51 1008.7
20260509210024 25 104 1.6 4.8 0.00 0.00 0.00 51 1008.7
20260509205504 25 360 1.6 4.8 0.00 0.00 0.00 52 1008.7
20260509205003 25 324 1.6 9.7 0.00 0.00 0.00 53 1008.7
20260509204520 25 98 1.6 9.7 0.00 0.00 0.00 51 1008.5
20260509204004 25 173 1.6 11.3 0.00 0.00 0.00 53 1008.5
20260509203505 25 171 3.2 11.3 0.00 0.00 0.00 52 1008.4
20260509203032 25 186 1.6 12.9 0.00 0.00 0.00 53 1008.3
20260509202504 25 175 3.2 12.9 0.00 0.00 0.00 53 1008.4
20260509202006 25 136 3.2 11.3 0.00 0.00 0.00 51 1008.4
20260509201522 25 246 1.6 12.9 0.00 0.00 0.00 52 1008.6
20260509201005 25 134 6.4 12.9 0.00 0.00 0.00 51 1008.6
20260509200510 25 173 3.2 11.3 0.00 0.00 0.00 50 1008.6
20260509200024 25 253 0.0 11.3 0.00 0.00 0.00 53 1008.6
20260509195504 25 144 3.2 11.3 0.00 0.00 0.00 49 1008.7
20260509195010 25 96 0.0 14.5 0.00 0.00 0.00 54 1008.8
20260509194530 25 250 4.8 14.5 0.00 0.00 0.00 52 1008.9
20260509194003 24 164 1.6 17.7 0.00 0.00 0.00 51 1009.0
20260509193507 24 9 1.6 17.7 0.00 0.00 0.00 50 1009.0
20260509193025 23 352 0.0 9.7 0.00 0.00 0.00 54 1009.1
20260509192504 23 111 3.2 9.7 0.00 0.00 0.00 55 1009.2
20260509192007 22 188 1.6 8.0 0.00 0.00 0.00 55 1009.4
20260509191526 22 166 0.0 12.9 0.00 0.00 0.00 55 1009.5
20260509191009 23 164 1.6 12.9 0.00 0.00 0.00 53 1009.4
20260509190511 23 122 8.0 12.9 0.00 0.00 0.00 53 1009.4
20260509190026 23 112 1.6 12.9 0.00 0.00 0.00 54 1009.5
20260509185505 23 338 0.0 12.9 0.00 0.00 0.00 52 1009.6
20260509185008 24 150 0.0 4.8 0.00 0.00 0.00 52 1009.6
20260509184537 23 167 0.0 4.8 0.00 0.00 0.00 55 1009.8
20260509184009 23 52 0.0 11.3 0.00 0.00 0.00 52 1009.8
20260509183510 23 268 0.0 16.1 0.00 0.00 0.00 49 1009.8
20260509183032 24 222 3.2 16.1 0.00 0.00 0.00 51 1009.8
20260509182507 24 74 0.0 11.3 0.00 0.00 0.00 55 1009.9
20260509182009 23 175 4.8 11.3 0.00 0.00 0.00 52 1010.0
20260509181505 25 152 3.2 6.4 0.00 0.00 0.00 51 1010.1
20260509181011 24 84 1.6 11.3 0.00 0.00 0.00 54 1010.2
20260509180507 23 163 1.6 11.3 0.00 0.00 0.00 56 1010.4
20260509180015 22 123 1.6 12.9 0.00 0.00 0.00 55 1010.4
20260509175509 23 121 0.0 12.9 0.00 0.00 0.00 57 1010.4
20260509175008 23 153 6.4 12.9 0.00 0.00 0.00 51 1010.3
20260509174508 23 213 4.8 12.9 0.00 0.00 0.00 55 1010.6
20260509174007 22 21 1.6 11.3 0.00 0.00 0.00 56 1010.6
20260509173515 22 135 3.2 16.1 0.00 0.00 0.00 56 1010.5
20260509173014 23 117 4.8 16.1 0.00 0.00 0.00 53 1010.5
20260509172507 23 126 1.6 11.3 0.00 0.00 0.00 55 1010.5
20260509172008 23 156 4.8 11.3 0.00 0.00 0.00 55 1010.5
20260509171519 22 116 3.2 8.0 0.00 0.00 0.00 56 1010.6
20260509171011 23 171 1.6 9.7 0.00 0.00 0.00 53 1010.7
20260509170508 23 196 1.6 11.3 0.00 0.00 0.00 53 1010.7
20260509170008 23 90 1.6 11.3 0.00 0.00 0.00 54 1010.9
20260509165508 23 138 3.2 17.7 0.00 0.00 0.00 56 1011.1
20260509165009 22 246 3.2 17.7 0.00 0.00 0.00 57 1011.3
20260509164509 23 142 4.8 11.3 0.00 0.00 0.00 53 1011.2
20260509164009 22 134 3.2 9.7 0.00 0.00 0.00 61 1011.4
20260509163508 22 88 1.6 9.7 0.00 0.00 0.00 57 1011.6
20260509163014 22 144 3.2 16.1 0.00 0.00 0.00 57 1011.5
20260509162508 22 156 4.8 16.1 0.00 0.00 0.00 55 1011.4
20260509162008 22 168 3.2 9.7 0.00 0.00 0.00 56 1011.3
20260509161517 22 142 3.2 6.4 0.00 0.00 0.00 60 1011.4
20260509161014 22 307 1.6 6.4 0.00 0.00 0.00 60 1011.4
20260509160510 21 198 1.6 8.0 0.00 0.00 0.00 61 1011.5
20260509160014 21 159 3.2 11.3 0.00 0.00 0.00 58 1011.6
20260509155508 22 139 4.8 11.3 0.00 0.00 0.00 54 1011.6
20260509155010 22 138 1.6 9.7 0.00 0.00 0.00 58 1011.6
20260509154516 21 195 1.6 14.5 0.00 0.00 0.00 58 1011.7
20260509154011 21 133 4.8 14.5 0.00 0.00 0.00 58 1011.9
20260509153508 21 148 1.6 8.0 0.00 0.00 0.00 57 1012.1
20260509153020 21 328 1.6 14.5 0.00 0.00 0.00 58 1012.1
20260509152507 21 144 6.4 14.5 0.00 0.00 0.00 60 1011.9
20260509152010 21 161 1.6 11.3 0.00 0.00 0.00 60 1011.9
20260509151517 21 184 3.2 11.3 0.00 0.00 0.00 58 1012.0
20260509151008 21 167 3.2 11.3 0.00 0.00 0.00 59 1012.2
20260509150510 21 204 3.2 9.7 0.00 0.00 0.00 62 1012.2
20260509150016 20 83 3.2 9.7 0.00 0.00 0.00 65 1012.1
20260509145510 21 261 3.2 9.7 0.00 0.00 0.00 63 1012.3
20260509145015 20 118 3.2 16.1 0.00 0.00 0.00 62 1012.4
20260509144518 20 360 0.0 16.1 0.00 0.00 0.00 66 1012.4
20260509144007 20 192 4.8 16.1 0.00 0.00 0.00 63 1012.6
20260509143511 20 185 3.2 12.9 0.00 0.00 0.00 64 1012.7
20260509143016 20 120 1.6 11.3 0.00 0.00 0.00 66 1012.8
20260509142508 19 181 1.6 11.3 0.00 0.00 0.00 68 1013.0
20260509142009 19 138 1.6 11.3 0.00 0.00 0.00 67 1013.1
20260509141524 19 113 1.6 9.7 0.00 0.00 0.00 69 1013.0
20260509141013 19 150 1.6 9.7 0.00 0.00 0.00 66 1012.9
20260509140509 19 183 1.6 12.9 0.00 0.00 0.00 66 1013.0
20260509140021 18 265 3.2 12.9 0.00 0.00 0.00 68 1012.9
20260509135510 18 74 3.2 12.9 0.00 0.00 0.00 70 1012.8
20260509135013 18 109 1.6 11.3 0.00 0.00 0.00 72 1012.8
20260509134519 17 182 3.2 11.3 0.00 0.00 0.00 72 1012.9
20260509134009 17 183 1.6 8.0 0.00 0.00 0.00 73 1013.1
20260509133514 17 167 0.0 9.7 0.00 0.00 0.00 74 1013.1
20260509133022 17 204 1.6 8.0 0.00 0.00 0.00 74 1013.3
20260509132511 17 159 0.0 8.0 0.00 0.00 0.00 75 1013.4
20260509132011 17 140 0.0 8.0 0.00 0.00 0.00 75 1013.4
20260509131521 17 173 1.6 8.0 0.00 0.00 0.00 76 1013.5
20260509131012 16 107 0.0 6.4 0.00 0.00 0.00 77 1013.4
20260509130513 16 116 0.0 6.4 0.00 0.00 0.00 76 1013.3
20260509130023 16 194 1.6 11.3 0.00 0.00 0.00 78 1013.3
20260509125519 16 107 1.6 11.3 0.00 0.00 0.00 77 1013.2
20260509125009 16 149 0.0 11.3 0.00 0.00 0.00 79 1013.1
20260509124535 15 123 1.6 14.5 0.00 0.00 0.00 78 1013.1
20260509124009 15 201 3.2 14.5 0.00 0.00 0.00 79 1013.1
20260509123509 15 157 3.2 14.5 0.00 0.00 0.00 79 1013.1
20260509123023 15 121 1.6 9.7 0.00 0.00 0.00 80 1013.2
20260509122516 15 293 0.0 9.7 0.00 0.00 0.00 80 1013.2
20260509122014 15 189 1.6 9.7 0.00 0.00 0.00 80 1013.2
20260509121535 14 116 1.6 9.7 0.00 0.00 0.00 81 1013.3
20260509121011 14 229 1.6 12.9 0.00 0.00 0.00 82 1013.4
20260509120508 14 145 4.8 12.9 0.00 0.00 0.00 82 1013.6
20260509120007 13 246 1.6 11.3 0.00 0.00 0.00 82 1013.5
20260509115504 13 190 1.6 9.7 0.00 0.00 0.00 83 1013.3
20260509115002 13 160 3.2 12.9 0.00 0.00 0.00 83 1013.2
20260509114517 13 159 1.6 16.1 0.00 0.00 0.00 84 1013.2
20260509114006 13 168 1.6 16.1 0.00 0.00 0.00 84 1013.1
20260509113503 13 171 1.6 11.3 0.00 0.00 0.00 85 1013.0
20260509113005 12 146 3.2 11.3 0.00 0.00 0.00 85 1013.0
20260509112506 12 140 1.6 9.7 0.00 0.00 0.00 85 1013.1
20260509112004 12 236 1.6 12.9 0.00 0.00 0.00 86 1013.1
20260509111503 12 126 0.0 12.9 0.00 0.00 0.00 85 1013.0
20260509111007 12 188 4.8 12.9 0.00 0.00 0.00 86 1012.9
20260509110502 12 124 1.6 6.4 0.00 0.00 0.00 86 1013.0
20260509110006 12 165 1.6 6.4 0.00 0.00 0.00 86 1013.0
20260509105507 12 101 1.6 6.4 0.00 0.00 0.00 85 1013.0
20260509105005 12 147 1.6 8.0 0.00 0.00 0.00 85 1013.0
20260509104508 12 195 3.2 14.5 0.00 0.00 0.00 85 1013.0
20260509104006 12 136 3.2 14.5 0.00 0.00 0.00 85 1013.1
20260509103503 12 165 1.6 8.0 0.00 0.00 0.00 85 1013.0
20260509103008 11 180 1.6 8.0 0.00 0.00 0.00 85 1013.0
20260509102506 12 157 0.0 4.8 0.00 0.00 0.00 85 1013.0
20260509102005 12 177 0.0 4.8 0.00 0.00 0.00 85 1013.0
20260509101510 12 226 0.0 12.9 0.00 0.00 0.00 84 1012.9
20260509101007 12 183 3.2 12.9 0.00 0.00 0.00 85 1012.8
20260509100503 11 175 1.6 9.7 0.00 0.00 0.00 85 1012.8
20260509100008 11 211 0.0 12.9 0.00 0.00 0.00 84 1012.9
20260509095510 11 144 0.0 12.9 0.00 0.00 0.00 84 1012.9
20260509095005 11 117 0.0 4.8 0.00 0.00 0.00 84 1012.9
20260509094507 11 130 1.6 8.0 0.00 0.00 0.00 84 1012.9
20260509094009 12 82 3.2 9.7 0.00 0.00 0.00 83 1012.9
20260509093502 12 181 1.6 9.7 0.00 0.00 0.00 83 1012.9
20260509093010 12 134 1.6 4.8 0.00 0.00 0.00 83 1013.0
20260509092507 12 163 1.6 9.7 0.00 0.00 0.00 82 1013.0
20260509092002 12 168 0.0 9.7 0.00 0.00 0.00 82 1013.1
20260509091511 12 170 1.6 9.7 0.00 0.00 0.00 81 1013.0
20260509091012 12 110 1.6 9.7 0.00 0.00 0.00 81 1013.1
20260509090504 12 171 0.0 6.4 0.00 0.00 0.00 81 1013.1
20260509090031 12 215 0.0 6.4 0.00 0.00 0.00 80 1013.1
20260509085507 12 141 0.0 9.7 0.00 0.00 0.00 80 1013.0
20260509085003 12 189 1.6 9.7 0.00 0.00 0.00 79 1013.0
20260509084520 12 144 1.6 8.0 0.00 0.00 0.00 79 1012.9